SQ8AQL-16 Weather Reports


time (UTC)temp
C
wind
direction
speed
KPH
gust
KPH
rain 1hr
cm
rain 24hr
cm
rain mn
cm
humidity
%
barometer
mb
20260905222024 17 97 0.0 0.0 0.00 0.00 0.00 55 1021.2
20260905220522 17 97 0.0 0.0 0.00 0.00 0.00 55 1020.7
20260905215022 17 97 0.0 0.0 0.00 0.00 0.00 55 1020.5
20260905213520 17 97 0.0 0.0 0.00 0.00 0.00 55 1020.1
20260905212020 17 97 0.0 0.0 0.00 0.00 0.00 55 1019.9
20260905210519 17 97 0.0 0.0 0.00 0.00 0.00 55 1019.8
20260905205017 17 97 0.0 0.0 0.00 0.00 0.00 55 1019.8
20260905203516 17 97 0.0 0.0 0.00 0.00 0.00 55 1019.8
20260905202015 17 97 0.0 0.0 0.00 0.00 0.00 55 1019.7
20260905200514 17 97 0.0 0.0 0.00 0.00 0.00 55 1019.7
20260905195013 17 97 0.0 0.0 0.00 0.00 0.00 55 1019.7
20260905193512 17 97 0.0 0.0 0.00 0.00 0.00 55 1019.4
20260905192011 17 97 0.0 0.0 0.00 0.00 0.00 55 1019.4
20260905190510 17 97 0.0 0.0 0.00 0.00 0.00 55 1019.4
20260905185008 17 97 0.0 0.0 0.00 0.00 0.00 55 1019.3
20260905183507 17 97 0.0 0.0 0.00 0.00 0.00 55 1019.2
20260905182006 18 119 0.0 0.0 0.00 0.00 0.00 53 1019.1
20260905180505 20 138 0.0 0.0 0.00 0.00 0.00 46 1019.1
20260905175004 20 138 0.0 0.0 0.00 0.00 0.00 46 1019.1
20260905173503 20 138 0.0 0.0 0.00 0.00 0.00 46 1019.0
20260905172002 20 138 0.0 0.0 0.00 0.00 0.00 46 1018.9
20260905164956 21 86 0.0 0.0 0.00 0.00 0.00 44 1018.7
20260905163455 21 60 0.0 0.0 0.00 0.00 0.00 42 1018.6
20260905161954 28 126 0.0 0.0 0.00 0.00 0.00 29 1018.5
20260905160453 28 126 0.0 0.0 0.00 0.00 0.00 29 1018.4
20260905154952 28 126 0.0 0.0 0.00 0.00 0.00 29 1018.2
20260905153452 28 126 0.0 0.0 0.00 0.00 0.00 29 1018.0
20260905151950 28 126 0.0 0.0 0.00 0.00 0.00 29 1018.0
20260905150449 28 126 0.0 0.0 0.00 0.00 0.00 29 1017.9
20260905144948 28 126 0.0 0.0 0.00 0.00 0.00 29 1017.9
20260905143447 22 224 0.0 0.0 0.00 0.00 0.00 49 1017.8
20260905141946 22 224 0.0 0.0 0.00 0.00 0.00 49 1017.8
20260905140445 22 224 0.0 0.0 0.00 0.00 0.00 49 1017.7
20260905134943 22 224 0.0 0.0 0.00 0.00 0.00 49 1017.8
20260905133443 22 224 0.0 0.0 0.00 0.00 0.00 49 1017.7
20260905131941 22 224 0.0 0.0 0.00 0.00 0.00 49 1017.7
20260905130440 22 224 0.0 0.0 0.00 0.00 0.00 49 1017.7
20260905124938 22 224 0.0 0.0 0.00 0.00 0.00 49 1017.7
20260905123437 22 224 0.0 0.0 0.00 0.00 0.00 49 1017.7
20260905121936 22 224 0.0 0.0 0.00 0.00 0.00 49 1017.9
20260905120434 22 224 0.0 0.0 0.00 0.00 0.00 49 1018.0
20260905114934 22 224 0.0 0.0 0.00 0.00 0.00 49 1018.1
20260905113433 22 224 0.0 0.0 0.00 0.00 0.00 49 1018.2
20260905111932 22 224 0.0 0.0 0.00 0.00 0.00 49 1018.2
20260905110430 22 224 1.6 1.6 0.00 0.00 0.00 49 1018.3
20260905104929 22 36 0.0 0.0 0.00 0.00 0.00 48 1018.3
20260905103429 22 36 0.0 0.0 0.00 0.00 0.00 48 1018.3
20260905101928 22 36 0.0 0.0 0.00 0.00 0.00 48 1018.1
20260905100427 22 36 0.0 0.0 0.00 0.00 0.00 48 1018.0
20260905094926 18 133 0.0 0.0 0.00 0.00 0.00 67 1018.0
20260905093425 18 133 0.0 0.0 0.00 0.00 0.00 67 1018.0
20260905091924 18 133 0.0 0.0 0.00 0.00 0.00 67 1017.8
20260905090423 18 133 0.0 0.0 0.00 0.00 0.00 67 1018.0
20260905084922 18 133 0.0 0.0 0.00 0.00 0.00 67 1018.0
20260905083420 18 133 0.0 1.6 0.00 0.00 0.00 67 1018.1
20260905081920 17 114 0.0 0.0 0.00 0.00 0.00 73 1018.0
20260905080419 17 114 0.0 0.0 0.00 0.00 0.00 73 1017.8
20260905074918 17 114 0.0 0.0 0.00 0.00 0.00 73 1017.6
20260905073417 17 114 0.0 0.0 0.00 0.00 0.00 73 1017.6
20260905071916 17 114 0.0 0.0 0.00 0.00 0.00 73 1017.2
20260905070415 17 114 0.0 0.0 0.00 0.00 0.00 73 1017.0
20260905064913 17 114 0.0 0.0 0.00 0.00 0.00 73 1017.0
20260905063412 17 114 0.0 0.0 0.00 0.00 0.00 73 1017.0
20260905061912 17 114 0.0 0.0 0.00 0.00 0.00 73 1016.6
20260905060411 17 114 0.0 0.0 0.00 0.00 0.00 73 1016.4
20260905053404 17 108 0.0 0.0 0.00 0.00 0.00 74 1015.8
20260905051903 17 145 0.0 0.0 0.00 0.00 0.00 68 1016.1
20260905050402 17 145 0.0 0.0 0.00 0.00 0.00 68 1015.7
20260905044901 17 145 0.0 0.0 0.00 0.00 0.00 68 1015.6
20260905040349 17 145 0.0 0.0 0.00 0.00 0.00 68 1014.9
20260905033342 17 145 0.0 0.0 0.00 0.00 0.00 68 1014.6
20260905031841 18 60 0.0 0.0 0.00 0.00 0.00 63 1014.8
20260905030339 18 60 0.0 0.0 0.00 0.00 0.00 63 1014.7
20260905024837 20 91 0.0 0.0 0.00 0.00 0.00 63 1014.6
20260905023336 20 91 0.0 0.0 0.00 0.00 0.00 63 1015.1
20260905021835 20 91 0.0 0.0 0.00 0.00 0.00 63 1015.0
20260905020335 20 91 0.0 0.0 0.00 0.00 0.00 63 1014.8
20260905014833 20 91 0.0 0.0 0.00 0.00 0.00 63 1014.3
20260905013332 20 91 0.0 0.0 0.00 0.00 0.00 63 1013.8
20260905011831 20 91 0.0 0.0 0.00 0.00 0.00 63 1013.8
20260905010329 20 91 0.0 0.0 0.00 0.00 0.00 63 1013.4
20260905004828 21 332 0.0 0.0 0.00 0.00 0.00 58 1012.9
20260905003326 21 332 0.0 0.0 0.00 0.00 0.00 58 1012.3
20260905001825 21 332 0.0 0.0 0.00 0.00 0.00 58 1011.9
20260905000325 21 332 0.0 0.0 0.00 0.00 0.00 58 1011.6
20260904234822 21 332 0.0 0.0 0.00 0.00 0.00 58 1011.4
20260904231816 21 332 0.0 0.0 0.00 0.00 0.00 58 1011.3
20260904230315 21 332 0.0 0.0 0.00 0.00 0.00 58 1011.6
20260904224813 21 332 0.0 0.0 0.00 0.00 0.00 58 1010.2